AO-07 1 07530U 74089B 23187.76257434 -.00000048 00000-0 -10329-4 0 9995 2 07530 101.9473 174.5719 0012489 27.9604 145.3951 12.53665165225869 UO-11 1 14781U 84021B 23186.92530548 .00001276 00000-0 15562-3 0 9990 2 14781 97.6580 163.1309 0009310 132.7389 227.4611 14.84967349117925 AO-16 1 20439U 90005D 23187.22194892 .00000173 00000-0 80141-4 0 9999 2 20439 98.8833 177.9407 0011413 143.0841 228.3882 14.33120174747888 LO-19 1 20442U 90005G 23186.88007967 .00000168 00000-0 77837-4 0 9992 2 20442 98.8444 163.7955 0012707 121.0308 239.2124 14.33273934748088 HUBBLE 1 20580U 90037B 23187.60293274 .00003465 00000-0 17878-3 0 9990 2 20580 28.4687 138.7985 0002431 225.5298 302.4854 15.13408807624674 MET-2/21 1 22782U 93055A 23187.44456196 .00000109 00000-0 85080-4 0 9998 2 22782 82.5488 69.4813 0022228 353.5516 179.1399 13.83889652507388 AO-27 1 22825U 93061C 23187.09570023 .00000112 00000-0 60880-4 0 9995 2 22825 98.8396 230.2896 0008735 20.5138 339.6393 14.30317386553269 IO-26 1 22826U 93061D 23187.09434967 .00000131 00000-0 67483-4 0 9999 2 22826 98.8342 230.1511 0008976 6.2344 353.8948 14.30679563553511 FO-29 1 24278U 96046B 23186.37968255 -.00000019 00000-0 16724-4 0 9998 2 24278 98.5291 162.4546 0350473 9.8974 350.8841 13.53148500327647 NOAA-15 1 25338U 98030A 23187.72849485 .00000249 00000-0 12186-3 0 9995 2 25338 98.6044 216.4501 0009172 254.8541 105.1625 14.26347252308042 GO-32 1 25397U 98043D 23187.12304056 .00000077 00000-0 53382-4 0 9991 2 25397 98.8696 144.7434 0002428 83.9840 276.1614 14.23884962298248 ISS 1 25544U 98067A 23187.87366696 .00010559 00000-0 19559-3 0 9994 2 25544 51.6404 230.9467 0000418 28.8951 142.9372 15.49576658404843 NO-44 1 26931U 01043C 23187.63157710 .00000184 00000-0 10142-3 0 9994 2 26931 67.0502 146.6180 0008077 269.4267 90.5909 14.30937942136528 SO-50 1 27607U 02058C 23187.66077709 .00000832 00000-0 13254-3 0 9991 2 27607 64.5527 205.2245 0067204 220.8027 138.8034 14.77375052105311 CO-55 1 27844U 03031E 23186.74483085 .00000329 00000-0 16610-3 0 9992 2 27844 98.6771 193.7290 0011055 74.1555 286.0841 14.22806053 38400 CO-57 1 27848U 03031J 23187.25476600 .00000289 00000-0 14946-3 0 9993 2 27848 98.6808 194.6400 0010981 86.2723 273.9711 14.22313951 38261 RS-22 1 27939U 03042A 23187.76069316 .00001152 00000-0 20742-3 0 9995 2 27939 98.2457 334.8705 0013696 76.7805 33.9502 14.68454454 57419 NOAA-18 1 28654U 05018A 23187.75221362 .00000224 00000-0 14401-3 0 9999 2 28654 98.9094 262.0478 0013506 328.3299 31.7059 14.12964858934331 CO-58 1 28895U 05043F 23187.32285771 .00001322 00000-0 25123-3 0 9994 2 28895 98.1561 319.2389 0016433 16.7352 343.4390 14.65737502943844 CO-65 1 32785U 08021C 23187.37310712 .00003329 00000-0 32981-3 0 9994 2 32785 97.7068 152.9191 0013307 46.1345 314.0971 14.92433925823751 AAUSAT2 1 32788U 08021F 23187.17710081 .00007255 00000-0 52523-3 0 9994 2 32788 97.5594 166.1777 0005898 295.5452 64.5164 15.04270991826062 DO-64 1 32789U 08021G 23187.03579766 .00057410 00000-0 14763-2 0 9994 2 32789 97.3001 208.4234 0007299 82.1135 278.0939 15.39044975830388 CO-66 1 32791U 08021J 23186.45533452 .00004753 00000-0 41817-3 0 9997 2 32791 97.6558 157.3099 0011460 0.1909 359.9315 14.96930797824474 RS-30 1 32953U 08025A 23187.76155045 .00000049 00000-0 28083-3 0 9998 2 32953 82.5041 304.9194 0020505 140.4658 219.7922 12.43126286686089 PRISM 1 33493U 09002B 23186.78309136 .00008939 00000-0 60159-3 0 9993 2 33493 98.2441 202.6086 0015114 350.5697 9.5242 15.06895962786557 NOAA-19 1 33591U 09005A 23187.79917424 .00000219 00000-0 14244-3 0 9999 2 33591 99.0983 234.0384 0013860 183.5380 176.5695 14.12782034742713 SRMSAT 1 37841U 11058D 23187.09630811 .00000444 00000-0 98500-4 0 9995 2 37841 19.9721 95.6937 0011779 238.9461 149.2869 14.10910537605709 HRBE 1 37855U 11061F 23187.40120075 .00027088 00000-0 82026-3 0 9993 2 37855 101.7065 159.9268 0115059 341.7646 17.9467 15.27832306639966 RS-40 1 38735U 12041C 23187.07504047 .00000002 00000-0 -57280-4 0 9991 2 38735 82.4755 26.3117 0016499 255.2645 104.6606 12.42594663496157 ZACUBE-1 1 39417U 13066B 23187.16514813 .00002502 00000-0 29137-3 0 9994 2 39417 97.6864 148.1693 0053429 223.7718 135.9257 14.85122475520010 Delfi-N3xt 1 39428U 13066N 23187.06361453 .00003573 00000-0 51413-3 0 9996 2 39428 97.8331 111.2309 0111672 128.1247 233.0092 14.72754447515093 GOMX-1 1 39430U 13066Q 23187.76275247 .00001401 00000-0 25063-3 0 9991 2 39430 97.7779 77.7631 0143710 271.5519 86.9226 14.61929921512391 LO-74 1 39440U 13066AA 23186.63225734 .00002799 00000-0 36375-3 0 9992 2 39440 97.7732 134.7834 0074237 328.4981 31.1796 14.79579017518084 AO-73 1 39444U 13066AE 23186.90423984 .00003177 00000-0 35347-3 0 9992 2 39444 97.6726 150.4797 0051971 209.3861 150.4431 14.86848975519012 SPROUT 1 39770U 14029E 23187.60441538 .00016531 00000-0 12304-2 0 9992 2 39770 97.9904 315.4320 0005875 230.6031 129.4674 15.03013475495071 DTUSAT-2 1 40030U 14033W 23187.78223549 .00004313 00000-0 41760-3 0 9991 2 40030 97.9681 128.5734 0009548 219.0081 141.0450 14.93252150491434 EO-80 1 40032U 14033Y 23187.75791983 .00003550 00000-0 34470-3 0 9994 2 40032 97.9677 128.5666 0009514 221.4998 138.5499 14.93257578491413 HODOYOSHI-1 1 40299U 14070B 23187.74289660 .00009842 00000-0 29979-3 0 9991 2 40299 97.1924 249.9030 0010145 198.5864 161.5010 15.34125995481806 FIREBIRD FU3 1 40377U 15003B 23187.34001497 .00292561 32124-4 12808-2 0 9991 2 40377 99.0726 152.3938 0036703 135.7146 224.7066 15.83551590467672 FIREBIRD FU4 1 40378U 15003C 23187.41133584 .00289473 31405-4 12844-2 0 9992 2 40378 99.0737 152.8083 0037136 134.8072 225.6222 15.83247131467699 GRIFEX 1 40379U 15003D 23187.64156296 .00028539 00000-0 59396-3 0 9994 2 40379 99.0781 129.1139 0078466 202.2501 157.5330 15.42274176466388 XW-2C 1 40906U 15049H 23187.75381444 .00011106 00000-0 42176-3 0 9997 2 40906 97.4927 194.9597 0013679 94.8020 265.4781 15.26909355431389 XW-2D 1 40907U 15049J 23187.74707937 .00013292 00000-0 47386-3 0 9992 2 40907 97.4906 195.5397 0012722 89.3649 270.9049 15.28958481431470 LILACSAT-2 1 40908U 15049K 23187.84332033 .00005312 00000-0 24943-3 0 9993 2 40908 97.5243 190.8458 0015659 118.8021 241.4788 15.19951880430788 XW-2E 1 40909U 15049L 23187.82219447 .00030271 00000-0 76699-3 0 9992 2 40909 97.4509 202.0637 0009732 65.1723 295.0533 15.39624319432169 XW-2F 1 40910U 15049M 23187.76317297 .00029680 00000-0 76859-3 0 9999 2 40910 97.4602 201.2465 0010631 66.6967 293.5396 15.38950937431897 XW-2B 1 40911U 15049N 23187.74600765 .00012901 00000-0 46329-3 0 9990 2 40911 97.4885 195.9635 0012714 90.7771 269.4925 15.28724996431358 DCBB 1 40912U 15049P 23187.83345483 .00039052 00000-0 81136-3 0 9995 2 40912 97.4147 206.0236 0007719 30.9596 329.2106 15.45539422432647 IO-86 1 40931U 15052B 23187.80511626 .00001179 00000-0 73612-4 0 9991 2 40931 6.0004 306.4804 0013363 214.9892 144.9357 14.77263664420257 ATHENOXAT-1 1 41168U 15077C 23187.87347161 .00232492 00000-0 19399-2 0 9993 2 41168 14.9862 65.6949 0007550 335.3792 24.6176 15.67922602419404 ChubuSat-2 1 41338U 16012B 23187.45365548 .00003513 00000-0 24084-3 0 9993 2 41338 31.0030 94.6185 0012213 8.5815 351.5028 15.04139151405280 ChubuSat-3 1 41339U 16012C 23187.78217392 .00003476 00000-0 23925-3 0 9994 2 41339 31.0094 89.6687 0012077 19.2926 340.8166 15.03985899405328 Horyu-4 1 41340U 16012D 23187.05422396 .00006216 00000-0 38625-3 0 9996 2 41340 31.0046 61.9485 0011137 69.2035 290.9795 15.08163351405574 e-st@r-II 1 41459U 16025D 23187.82716143 .00027349 00000-0 76333-3 0 9990 2 41459 98.1843 31.1348 0104306 31.5311 329.2121 15.31323315395909 AAUSAT4 1 41460U 16025E 23187.57337218 .00127991 00000-0 13573-2 0 9996 2 41460 98.1546 44.4389 0047597 342.1382 17.8198 15.62242483396792 LO-87 1 41557U 16033B 23187.82996641 .00070928 00000-0 79765-3 0 9994 2 41557 97.3892 296.5434 0004758 73.7463 286.4318 15.62355879396695 NuSat2 1 41558U 16033C 23187.76160685 .00085036 00000-0 80233-3 0 9997 2 41558 97.4180 304.7831 0003588 59.0817 301.0795 15.66770873397031 Lapan A3 1 41603U 16040E 23187.71016176 .00002205 00000-0 97737-4 0 9991 2 41603 97.1645 212.3723 0010994 243.5601 116.4509 15.22566100390468 Pratham 1 41783U 16059A 23187.36534692 .00000773 00000-0 15512-3 0 9997 2 41783 97.8674 217.6248 0033932 41.9334 318.4459 14.63999529361786 TY-1 1 41844U 16066D 23187.81945189 .00059029 00000-0 84078-3 0 9991 2 41844 97.3649 207.7064 0005056 2.9016 357.2268 15.56134160370736 CAS-2T 1 41847U 16066G 23186.93509349 .00002084 00000-0 31562-3 0 9999 2 41847 98.5031 255.3982 0360413 141.0778 221.6960 14.39771491349504 EO-88 1 42017U 17008BX 23186.67672543 .00503367 10514-3 12843-2 0 9998 2 42017 97.1997 259.0872 0008572 241.3693 118.6722 15.95307094356409 CAS-4B 1 42759U 17034B 23187.80230183 .00007247 00000-0 36301-3 0 9994 2 42759 43.0163 6.6179 0011853 233.6740 126.3015 15.17756534334617 CAS-4A 1 42761U 17034D 23187.75254196 .00007732 00000-0 38643-3 0 9991 2 42761 43.0153 5.4222 0012549 234.0465 125.9220 15.17755085334610 NIUSat 1 42766U 17036B 23187.81992468 .00026773 00000-0 66110-3 0 9992 2 42766 97.1543 218.6961 0010164 44.5230 315.6832 15.40426869335632 Aalto 1 1 42775U 17036L 23187.02982148 .00015877 00000-0 45100-3 0 9998 2 42775 97.1496 216.5356 0010582 48.7388 311.4767 15.36204146335412 URSA MAIOR 1 42776U 17036M 23186.80814524 .00018560 00000-0 49316-3 0 9991 2 42776 97.1509 217.7149 0009923 46.7162 313.4910 15.38254905335452 Max Valier Sat 1 42778U 17036P 23187.34307444 .00020534 00000-0 51886-3 0 9990 2 42778 97.1520 221.7443 0008666 48.2778 311.9208 15.39791445335675 Pegasus 1 42784U 17036V 23187.66935408 .00038978 00000-0 72069-3 0 9996 2 42784 97.1438 224.8662 0006267 44.3358 315.8395 15.48933169335999 SUCHAI 1 1 42788U 17036Z 23187.10197412 .00081664 00000-0 97709-3 0 9992 2 42788 97.1410 228.3798 0003405 51.1785 308.9777 15.60709425336249 SKCUBE 1 42789U 17036AA 23187.82871845 .00057794 00000-0 88127-3 0 9992 2 42789 97.1408 227.3438 0004821 38.5681 321.5917 15.54274338336165 VENTA 1 1 42791U 17036AC 23172.62814748 .00040201 00000-0 76910-3 0 9998 2 42791 97.1470 211.1791 0007660 86.9699 273.2429 15.47934209333722 Robusta 1B 1 42792U 17036AD 23187.35806189 .00069763 00000-0 91486-3 0 9994 2 42792 97.1393 228.2288 0003083 48.0858 312.0661 15.58327421336196 D-SAT 1 42794U 17036AF 23187.73647184 .00003094 00000-0 24749-3 0 9999 2 42794 97.4656 178.8898 0114507 235.4844 123.5525 14.95876917328881 TechnoSat 1 42829U 17042E 23187.68376653 .00002523 00000-0 24285-3 0 9990 2 42829 97.3881 23.9608 0014102 154.3385 205.8539 14.93724020325406 AO-91 1 43017U 17073E 23187.44075633 .00006997 00000-0 48643-3 0 9995 2 43017 97.6278 71.0177 0232549 6.1723 354.2271 14.86437717304046 PICSAT 1 43132U 18004X 23187.03113483 .00091447 00000-0 10480-2 0 9990 2 43132 97.3268 270.8701 0001717 76.4494 283.6955 15.61803326305488 AO-92 1 43137U 18004AC 23186.63659992 .00030365 00000-0 59329-3 0 9998 2 43137 97.3281 266.0449 0005793 83.2795 276.9114 15.47396852305153 TianYi 2 1 43155U 18008A 23187.85801679 .00016136 00000-0 62276-3 0 9993 2 43155 97.2961 239.9135 0011883 231.8588 128.1581 15.26297799301650 Zhou Enlai 1 43156U 18008B 23187.85996895 .00018227 00000-0 68950-3 0 9997 2 43156 97.3010 240.0606 0009547 230.9870 129.0520 15.26960551301589 TianYi 6 1 43158U 18008D 23187.57657360 .00012650 00000-0 53074-3 0 9994 2 43158 97.3016 236.6296 0009413 236.8256 123.2079 15.23575752301372 S-Net D 1 43186U 18014G 23187.72152760 .00003079 00000-0 24780-3 0 9990 2 43186 97.6254 91.1579 0017384 102.1876 258.1297 15.00586451296485 S-Net B 1 43187U 18014H 23186.98922843 .00002859 00000-0 23049-3 0 9997 2 43187 97.6253 90.3662 0017737 101.9440 258.3774 15.00574966296373 S-Net A 1 43188U 18014J 23187.52277620 .00003058 00000-0 24613-3 0 9995 2 43188 97.6256 90.9787 0017727 100.5533 259.7689 15.00580932296457 S-Net C 1 43189U 18014K 23186.99169594 .00002931 00000-0 23616-3 0 9997 2 43189 97.6254 90.3443 0018334 97.1477 263.1832 15.00567405294921 Shaonian Xing 1 43199U 18015H 23187.61610315 .00305826 00000-0 11372-2 0 9995 2 43199 97.5401 349.2505 0001961 225.3936 134.7175 15.87283080302891 CubeBel-1 1 43666U 18083E 23187.71301913 .00030707 00000-0 78544-3 0 9999 2 43666 97.3778 219.4426 0010017 63.9288 296.2987 15.39327820260204 Changshagaoxin 1 43669U 18083H 23187.72829095 .00024803 00000-0 71736-3 0 9995 2 43669 97.3773 213.9792 0008321 67.0767 293.1354 15.35575422259941 Ten-Koh 1 43677U 18084G 23187.38209046 .00001981 00000-0 19527-3 0 9997 2 43677 98.0161 327.6251 0016268 86.1808 274.1271 14.93136342254926 PO-101 1 43678U 18084H 23187.81961874 .00001738 00000-0 17069-3 0 9999 2 43678 98.0256 332.1872 0010910 96.4402 263.8060 14.93497249255191 QO-100 1 43700U 18090A 23187.28915499 .00000141 00000-0 00000+0 0 9995 2 43700 0.0175 40.3804 0001981 97.4375 276.0731 1.00270867 17120 Reaktor Hello World 1 43743U 18096AA 23186.99091039 .00064977 00000-0 76951-3 0 9999 2 43743 97.3169 274.5707 0008928 119.1569 241.0583 15.60998554257109 MinXSS-2 1 43758U 18099A 23187.11471674 .00005531 00000-0 42626-3 0 9993 2 43758 97.6050 250.8350 0019159 63.2667 297.0516 15.01878742250587 AO-95 1 43770U 18099N 23187.43826210 .00004462 00000-0 36235-3 0 9993 2 43770 97.5680 248.4519 0014624 79.9786 280.3087 15.00032967250495 RANGE-B 1 43772U 18099Q 23186.75398562 .00004824 00000-0 37412-3 0 9993 2 43772 97.5722 250.6188 0007547 44.7983 315.3850 15.01820065250454 RANGE-A 1 43773U 18099R 23187.09857565 .00003117 00000-0 26411-3 0 9996 2 43773 97.5614 246.1495 0013184 60.0510 300.2021 14.98625311250395 MOVE-II 1 43780U 18099Y 23187.13260120 .00008848 00000-0 64184-3 0 9999 2 43780 97.5689 250.7601 0009865 92.1245 268.1111 15.04109448250586 SNUSat 2 1 43782U 18099AA 23187.40438579 .00003747 00000-0 30577-3 0 9998 2 43782 97.5758 248.9419 0014133 47.8645 312.3777 14.99954785250514 SnugLite 1 43784U 18099AC 23187.41369811 .00003711 00000-0 29872-3 0 9990 2 43784 97.5668 248.6337 0008901 65.6961 294.5192 15.00530867250557 ITASat 1 1 43786U 18099AE 23187.11117369 .00003898 00000-0 32006-3 0 9997 2 43786 97.5724 249.1672 0014904 69.3757 290.9064 14.99677769250484 EAGLET 1 1 43790U 18099AJ 23186.69072869 .00002402 00000-0 20148-3 0 9993 2 43790 97.5734 249.2195 0012823 63.1836 297.0697 14.99227022250156 ESEO 1 43792U 18099AL 23187.20178664 .00001681 00000-0 14797-3 0 9994 2 43792 97.5696 248.1302 0014399 64.5402 295.7308 14.97731107250232 CSIM 1 43793U 18099AM 23187.42185953 .00007096 00000-0 50858-3 0 9992 2 43793 97.5747 252.3922 0017099 66.3410 293.9609 15.04555978250473 Astrocast 0.1 1 43798U 18099AS 23187.64987022 .00007738 00000-0 57861-3 0 9992 2 43798 97.5853 251.9370 0012520 46.1127 314.1130 15.02984173250693 JO-97 1 43803U 18099AX 23187.44826132 .00005107 00000-0 40269-3 0 9993 2 43803 97.5718 249.5261 0015518 35.1389 325.0855 15.01086311250589 Suomi 100 1 43804U 18099AY 23187.44938559 .00005092 00000-0 40465-3 0 9992 2 43804 97.5682 249.3125 0020623 48.7931 311.5066 15.00721378250585 Al Farabi 2 1 43805U 18099AZ 23187.10280759 .00006004 00000-0 45537-3 0 9997 2 43805 97.5614 250.0410 0013709 48.5788 311.6613 15.02520558250591 CHOMPTT 1 43855U 18104G 23187.65482854 .00022422 00000-0 53624-3 0 9997 2 43855 85.0305 152.9042 0008858 230.9558 129.0907 15.41303277253575 ISAT 1 43879U 18111D 23187.67468133 .00006155 00000-0 46468-3 0 9990 2 43879 97.6444 91.8581 0016445 97.4253 262.8841 15.02661650245249 UWE-4 1 43880U 18111E 23187.67251630 .00005475 00000-0 41565-3 0 9991 2 43880 97.6352 92.5509 0020618 106.2567 254.0928 15.02438042245292 Sparrow 1 43881U 18111F 23187.21101042 .00005478 00000-0 41061-3 0 9997 2 43881 97.6497 92.7701 0012616 136.2014 224.0214 15.03023201245246 Lume 1 1 43908U 18111AJ 23187.41891234 .00030064 00000-0 57752-3 0 9991 2 43908 97.1367 70.4113 0014542 124.7439 235.5183 15.47788500252361 FO-99 1 43937U 19003F 23187.80333290 .00059610 00000-0 87539-3 0 9994 2 43937 97.0830 214.7991 0012586 189.3029 170.7995 15.55220927249092 AstroCast 0.2 1 44083U 19018F 23187.64395151 .00047486 00000-0 77957-3 0 9990 2 44083 97.2638 247.6216 0006519 164.9195 195.2254 15.52258228237437 AISTechSat 3 1 44103U 19018AB 23187.68979834 .00024938 00000-0 58300-3 0 9991 2 44103 97.2509 246.0233 0009164 190.9830 169.1219 15.42107832237516 AISat 1 1 44104U 19018AC 23186.24696060 .00018596 00000-0 35172-3 0 9995 2 44104 97.3746 277.9275 0040059 190.6523 169.3883 15.47545821238513 Prox-1 1 44339U 19036A 23186.62475814 .00004620 00000-0 90542-3 0 9994 2 44339 24.0010 287.3060 0010264 105.3528 254.8099 14.59655694214384 Move-IIb 1 44398U 19038N 23187.70012165 .00045574 00000-0 10425-2 0 9991 2 44398 97.6594 171.4724 0012581 202.0236 158.0472 15.42598735221672 SONATE 1 44400U 19038Q 23187.36931312 .00007840 00000-0 34819-3 0 9999 2 44400 97.6844 165.4159 0018675 241.8248 118.1101 15.21681620221155 BeeSat 9 1 44412U 19038AC 23187.69482780 .00020460 00000-0 68564-3 0 9995 2 44412 97.6746 168.9878 0013398 227.7110 132.2995 15.30870597221143 JAISAT-1 1 44419U 19038F 23186.92182901 .00018448 00000-0 61363-3 0 9992 2 44419 97.6737 169.2791 0012674 226.1218 133.8976 15.31143165221406 Taurus 1 1 44530U 19059C 23187.73965247 .00003656 00000-0 94928-3 0 9999 2 44530 98.5572 295.8450 0012991 39.3462 320.8673 14.50266489201474 Duchifat 3 1 44854U 19089C 23187.76029257 .00007429 00000-0 49697-3 0 9991 2 44854 36.9630 334.2844 0007704 115.7158 244.4382 15.06561335195780 OPS-SAT 1 44878U 19092F 23187.09686604 .00017817 00000-0 51852-3 0 9990 2 44878 97.4743 16.1000 0009704 72.8128 287.4176 15.35437361196697 TO-108 1 44881U 19093C 23187.80191798 .00000933 00000-0 12236-3 0 9993 2 44881 97.8616 265.9197 0015076 19.7222 340.4571 14.82583332191706 FloripaSat 1 1 44885U 19093G 23187.74230802 .00003151 00000-0 36648-3 0 9998 2 44885 97.8682 268.6888 0013803 22.1991 337.9819 14.85965706191851 RS-44 1 44909U 19096E 23186.36109653 .00000013 00000-0 -33243-6 0 9990 2 44909 82.5225 335.8674 0218166 144.2780 217.3144 12.79721976164530 BY70-2 1 45857U 20042B 23187.80837152 .00016468 00000-0 16604-2 0 9996 2 45857 97.9251 267.7832 0007261 295.7372 64.3096 14.91173572162467 UPMSat 2 1 46276U 20061E 23187.13206707 .00007219 00000-0 30284-3 0 9990 2 46276 97.3454 254.3209 0000560 149.5335 210.5935 15.23779359157172 AmicalSat 1 46287U 20061R 23187.36146582 .00009766 00000-0 44924-3 0 9996 2 46287 97.3988 253.5143 0002707 60.7261 299.4245 15.20537935156629 SALSAT 1 46495U 20068K 23187.83042913 .00003711 00000-0 24536-3 0 9990 2 46495 97.7706 136.0440 0016996 57.5131 302.7737 15.07909820152038 CAPE 3 1 47309U 21002A 23187.17743431 .00029861 00000-0 68823-3 0 9995 2 47309 60.6779 346.6881 0008982 226.0058 134.0298 15.42429261137213 AO-109 1 47311U 21002C 23187.46797097 .00022846 00000-0 57400-3 0 9992 2 47311 60.6817 344.3639 0008100 209.4373 150.6266 15.39956355137261 ExoCube 2 1 47319U 21002L 23187.15300863 .00021254 00000-0 54942-3 0 9997 2 47319 60.6797 347.8181 0008731 215.3928 144.6588 15.39118416137132 UVSQ-SAT 1 47438U 21006AB 23187.12915985 .00012363 00000-0 49775-3 0 9996 2 47438 97.3823 243.9692 0009563 25.8059 334.3654 15.24972129135534 YUSAT 1 1 47439U 21006AC 23187.12278940 .00016461 00000-0 61062-3 0 9996 2 47439 97.3832 244.7944 0008620 23.8721 336.2917 15.27639984135581 SOMP 2b 1 47445U 21006AJ 23187.38969372 .00011548 00000-0 47575-3 0 9991 2 47445 97.3790 243.4481 0009588 29.9367 330.2417 15.24213010135540 IDEASSat 1 47458U 21006AX 23186.39367400 .00010512 00000-0 44197-3 0 9996 2 47458 97.3888 243.2534 0009038 33.3945 326.7860 15.23556816135376 CubeSX-Sirius-HSE 1 47951U 21022V 23187.77678446 .00007768 00000-0 43264-3 0 9993 2 47951 97.4951 84.8159 0016554 266.6032 93.3305 15.13780542125999 CubeSX-HSE 1 47952U 21022W 23187.81527391 .00007802 00000-0 43372-3 0 9990 2 47952 97.4946 84.9026 0016569 265.7629 94.1709 15.13844904126009 KSU-Cubesat 1 47954U 21022Y 23187.65769484 .00009283 00000-0 50257-3 0 9990 2 47954 97.4956 85.1507 0015860 264.7675 95.1748 15.14744872125728 GRBAlpha 1 47959U 21022AD 23187.66866374 .00008474 00000-0 46969-3 0 9998 2 47959 97.4951 84.8444 0016453 266.7646 93.1703 15.13927007124802 Orbicraft-Zorkiy 1 47960U 21022AE 23187.68303626 .00008229 00000-0 44721-3 0 9990 2 47960 97.4981 85.3134 0016000 265.5628 94.3776 15.14644627125511 STECCO 1 47962U 21022AG 23187.67638839 .00016448 00000-0 74567-3 0 9991 2 47962 97.4950 87.8544 0010436 248.8373 111.1747 15.20869634125003 DO-111 1 47963U 21022AH 23187.69968948 .00559507 00000-0 31833-2 0 9997 2 47963 97.4881 97.7000 0012539 159.3341 200.8434 15.77377722125655 MO-110 1 47964U 21022AJ 23187.45222390 .00015122 00000-0 66888-3 0 9995 2 47964 97.4967 88.2572 0012381 244.4318 115.5638 15.21711125125000 FEES 1 48082U 21022AL 23186.53497443 .00027375 00000-0 98259-3 0 9998 2 48082 97.4959 88.7782 0007947 231.1459 128.9072 15.28625393124661 TUBIN 1 48900U 21059X 23187.77825927 .00008080 00000-0 38072-3 0 9995 2 48900 97.6032 321.5077 0008629 205.8667 154.2137 15.19746859112152 IT-SPINS 1 49017U 21013G 23186.74196743 .00029256 00000-0 64445-3 0 9999 2 49017 51.5926 347.6571 0005465 30.8499 329.2806 15.43680597112571 LEDSAT 1 49069U 21073D 23187.41520802 .00007738 00000-0 42059-3 0 9992 2 49069 97.4813 257.9667 0024764 56.7433 303.6167 15.14502735103817 CUTE 1 49263U 21088D 23187.12272343 .00007768 00000-0 49396-3 0 9990 2 49263 97.5432 252.5974 0017843 192.5744 167.5042 15.08956588 97146 TeikyoSat 4 1 49396U 21102B 23187.11445834 .00000924 00000-0 74230-4 0 9993 2 49396 97.5097 238.5221 0015556 22.1058 338.0835 15.02308902 90619 Z-Sat 1 49399U 21102E 23187.76644733 .00003652 00000-0 26049-3 0 9991 2 49399 97.4824 240.2622 0021816 6.4631 353.6873 15.04976983 90833 KOSEN 1 1 49402U 21102H 23187.61822028 .00004020 00000-0 27298-3 0 9992 2 49402 97.4760 240.6629 0020384 356.3660 3.7416 15.06780434 90883 HO-113 1 50466U 21131B 23187.70931384 .00000510 00000-0 17976-3 0 9994 2 50466 98.5522 269.1941 0005472 85.7406 274.4407 14.38950098 80164 Tevel-3 1 50988U 22002E 23187.66096982 .00017682 00000-0 69226-3 0 9995 2 50988 97.4318 254.5019 0008733 158.6453 201.5151 15.25835237 81738 Tevel-8 1 50989U 22002F 23187.68057441 .00017495 00000-0 68638-3 0 9993 2 50989 97.4334 254.5826 0008754 157.9377 202.2240 15.25766654 81736 Tevel-5 1 50998U 22002Q 23187.66046808 .00018515 00000-0 70599-3 0 9999 2 50998 97.4314 254.9082 0009938 154.5824 205.5906 15.26693241 81767 Tevel-6 1 50999U 22002R 23187.65898635 .00018302 00000-0 69788-3 0 9994 2 50999 97.4313 254.9010 0009939 154.3488 205.8245 15.26693740 81766 Tevel-1 1 51013U 22002AF 23187.67137040 .00017318 00000-0 67911-3 0 9992 2 51013 97.4312 254.4522 0008635 158.5194 201.6408 15.25786025 81738 Grizu-263a 1 51025U 22002AT 23187.17000504 .00085490 00000-0 15714-2 0 9993 2 51025 97.4457 260.2701 0008490 164.1122 196.0397 15.48880854 81990 NO-116 1 51031U 22002AZ 23186.97526843 .00032010 00000-0 97158-3 0 9999 2 51031 97.4439 257.0240 0010194 158.1893 201.9785 15.33983144 81785 IRIS-A 1 51044U 22002BN 23187.63083475 .00007784 00000-0 36669-3 0 9996 2 51044 97.4333 252.7934 0008891 162.7964 197.3574 15.19753673 81617 Tevel-7 1 51062U 22002CG 23187.68132426 .00017585 00000-0 68948-3 0 9997 2 51062 97.4330 254.5560 0008712 157.6110 202.5510 15.25787292 81730 Tevel-4 1 51063U 22002CH 23187.62250935 .00016772 00000-0 65897-3 0 9995 2 51063 97.4329 254.4795 0008730 157.6810 202.4809 15.25727881 81722 Tevel-2 1 51069U 22002CP 23187.66274580 .00017759 00000-0 69514-3 0 9993 2 51069 97.4315 254.4742 0008677 158.5033 201.6571 15.25840546 81734 DELFI-PQ 1 51074U 22002CU 23186.94795660 .00038054 00000-0 10291-2 0 9994 2 51074 97.4576 259.5128 0010323 181.2020 178.9202 15.37564429 81882 SO-115 1 51080U 22002DA 23187.16307581 .00018739 00000-0 65377-3 0 9991 2 51080 97.4598 257.9513 0010942 185.2015 174.9114 15.29605578 81798 SO-114 1 51081U 22002DB 23187.47583640 .00020548 00000-0 71211-3 0 9993 2 51081 97.4590 258.2404 0011147 184.4047 175.7097 15.29802064 81842 OreSat0 1 52017U 22026K 23186.54374108 .00014479 00000-0 56950-3 0 9992 2 52017 97.5077 188.9957 0022278 25.8086 334.4258 15.25527946 72340 Planetum 1 1 52738U 22057G 23187.29895465 .00009966 00000-0 45496-3 0 9991 2 52738 97.5406 303.2595 0005713 279.9049 80.1541 15.20791724 61566 Foresail-1 1 52766U 22057AL 23187.68397195 .00008711 00000-0 40946-3 0 9994 2 52766 97.5527 304.5416 0010809 259.8956 100.1059 15.19784869 61649 SNUGLITE 2 1 52899U 22065F 23186.66318118 .00000982 00000-0 21700-3 0 9994 2 52899 98.0715 330.9936 0008631 151.3519 208.8157 14.59355843 53557 CTIM 1 52950U 22074G 23187.53482145 .00038058 00000-0 78921-3 0 9993 2 52950 44.9960 250.9901 0014756 349.2196 10.8375 15.45029174 56595 IO-117 1 53106U 22080B 23184.70595441 -.00000003 00000-0 00000+0 0 9993 2 53106 70.1641 313.9781 0008494 182.0884 177.9741 6.42556846 22819 AstroBioCubeSat 1 53107U 22080C 23025.30817895 -.00000003 00000-0 00000-0 0 9995 2 53107 70.1710 9.4734 0013545 210.3158 149.6718 6.42110537 12478 SelfieSat 1 53951U 22057BC 23187.57238459 .00014481 00000-0 62502-3 0 9999 2 53951 97.5455 304.2335 0007735 269.5513 90.4837 15.22602483 61633 FO-118 1 54684U 22167C 23187.76857925 .00009693 00000-0 52983-3 0 9992 2 54684 97.5656 325.2187 0012210 265.8148 94.1688 15.14437111 31643 KILICSAT 1 56181U 23054D 23187.76265373 .00010167 00000-0 43368-3 0 9997 2 56181 97.4021 82.3654 0008339 338.7470 21.3419 15.23081690 13154 SSS-2B 1 56184U 23054G 23187.75498432 .00010995 00000-0 46599-3 0 9991 2 56184 97.4082 82.4434 0009638 337.5238 22.5576 15.23269754 13159 CIRBE 1 56188U 23054L 23186.94585871 .00012077 00000-0 50351-3 0 9993 2 56188 97.4035 81.6401 0008374 335.5926 24.4913 15.23811189 13032 INSPIRE-Sat 7 1 56211U 23054AK 23186.92966750 .00014026 00000-0 55467-3 0 9996 2 56211 97.4062 81.8435 0012368 311.8535 48.1647 15.25513650 13041 RoseyCubesat 1 1 56212U 23054AL 23186.65716376 .00014993 00000-0 58786-3 0 9994 2 56212 97.4070 81.6034 0012655 312.0961 47.9201 15.25782823 13008 ARKSAT 1 1 56311U 98067VC 23187.42120012 .00051351 00000-0 63810-3 0 9995 2 56311 51.6354 230.5407 0002331 103.5854 256.5399 15.59463278 11368 AuroraSat 1 56312U 98067VD 23187.07901140 .00068059 00000-0 80033-3 0 9995 2 56312 51.6345 232.0028 0002709 70.5899 289.5387 15.60790135 11344 Ex-Alta 2 1 56313U 98067VE 23186.45988130 .00048217 00000-0 60114-3 0 9993 2 56313 51.6341 235.3656 0002334 99.0445 261.0812 15.59403562 11230 LightCube 1 56314U 98067VF 23187.21388212 .00061339 00000-0 73097-3 0 9998 2 56314 51.6343 231.4011 0004302 76.4988 283.6485 15.60480619 11385 NEUDOSE 1 56315U 98067VG 23186.57772374 .00033001 00000-0 45141-3 0 9997 2 56315 51.6350 235.4030 0004568 114.0343 246.1128 15.57102953 11226 YukonSat 1 56316U 98067VH 23187.57919081 .00048331 00000-0 62596-3 0 9992 2 56316 51.6350 230.0916 0004137 102.1889 257.9567 15.58387576 11400 SNIPE 4 1 56744U 23072B 23187.05788390 .00005359 00000-0 35598-3 0 9996 2 56744 97.5513 13.6059 0009309 149.5758 210.6012 15.07583352 6278 SNIPE 2 1 56745U 23072C 23187.78425574 .00005305 00000-0 35113-3 0 9993 2 56745 97.5525 14.3321 0009692 149.7732 210.4057 15.07723571 6389 /EX
